sat.trackr.live / text

‹ back to catalog

HULIANWANG DIGUI-136

NORAD 67244 · 2025-311J

PAYLOAD ACTIVE UNKNOWN

§ Identity

Operator
Country
PRC
Launch date
2025-12-25
Launch site
WSC
Launch vehicle
Mass (kg)
RCS (m²)

External: N2YO · Heavens-Above · Gunter

§ Orbital elements

Epoch: 2026-05-24T21:32:51.586656Z

Period
108.33 min
Inclination
50.0076°
Eccentricity
0.0000929
Mean motion
13.29323410 rev/d
Perigee alt
1,148.6 km
Apogee alt
1,150.0 km
Semi-major
7,527.5 km
B*
6.7189e-5
RAAN
199.2241°
Arg perigee
245.3319°
Mean anomaly
114.7456°
Rev number
2,024

§ Raw data

HULIANWANG DIGUI-1361 67244U 25311J   26144.89781929 -.00000093  00000+0  67189-4 0  99922 67244  50.0076 199.2241 0000929 245.3319 114.7456 13.29323410 20242

JSON: /api/v1/satellites/67244 · /tle

For live sub-satellite position, see the globe view (requires WebGL).

§ Visibility from observer

Set your observer location to see the next 7 days of passes ≥ 10°. The values pass through the URL so the page stays shareable.

No JS? Fill the form by hand. The geolocation button needs JavaScript.